Weather in Belozerye

Russia / Republic of Mordovia     54°20′19″N   45°22′31″E
temp.,
°C
wind,
m/s
gust,
m/s
humid.,
%
clouds,
%
prec.,
mm/h
press.,
hPa
HPBL,
m
29 june, wed
wed2900:00+10nne22745 0.0 102011
03:00+8n22730 0.0 102125
06:00+11nne267412 0.0 1021241
09:00+14nne46615 0.0 1022937
12:00+16nne455738 0.0 10211479
15:00+17n355897 0.0 10201592
18:00+16nnw257161 0.1 1019203
21:00+11nw22810 0.1 101910
30 june, thu
thu3000:00+10wnw22830 0.0 101810
03:00+8wnw2284100 0.0 101823
06:00+11wnw398193 0.0 1017260
09:00+16nw576215 0.0 1016651
12:00+19nw675352 0.0 10151931
15:00+19nnw68534 0.0 10142052
18:00+17nw486565 0.0 1013414
21:00+14nw3970100 0.1 1013234
1 july, fri
fri100:00+11ne237890 0.1 101476
03:00+8nne33878 0.1 101534
06:00+10nne397572 0.0 1016551
09:00+13n710595 0.0 10161558
12:00+15n8105452 0.0 10161795
15:00+13nne6117195 0.1 10161158
18:00+13nne5128298 0.8 1017653
21:00+11n498613 0.9 1017244
2 july, sat
sat200:00+9nnw33905 0.0 101745
03:00+8nnw33905 0.0 101844
06:00+11nnw37825 0.0 1018214
09:00+16n476225 0.0 1017586
12:00+20n46514 0.0 10161839
15:00+19nnw665916 0.0 10151225
18:00+17nw367468 0.0 1015299
21:00+13nnw12875 0.0 101511
3 july, sun
sun300:00+12nnw11915 0.0 101510
03:00+11nnw119354 0.0 101510
06:00+14n24860 0.0 1016150
09:00+19nne34680 0.0 1017570
12:00+22nne33545 0.0 10171619
15:00+23nne225051 0.0 10171801
18:00+23nnw126265 0.0 10171159
21:00+18nw117049 0.0 101911